User: anonymous   Login
Location: Mascot Post Office (historical)
(40.2645°N, 99.5462°W)
Time: 07:31:37
(UTC+00:00)
Language:

BREEZE-M (TANK) - Orbit

View from above orbital plane
View from above orbital plane
View from above satellite
View from above satellite

Ground track
Ground track

The orbit data is extracted from the following two-line orbital elements,

1 39124U 13012C   20273.08951977  .00002872  00000-0  64526-3 0  9991
2 39124  49.4378 161.7734 5643828  55.2567 345.7585  4.57647731124616
Epoch (UTC): 29 September 2020 02:08:54
Eccentricity: 0.5643828
inclination: 49.4378°
perigee height: 297 km
apogee height: 17595 km
right ascension of ascending node: 161.7734°
argument of perigee: 55.2567°
revolutions per day: 4.57647731
mean anomaly at epoch: 345.7585°
orbit number at epoch: 12461

The dashed part of the orbit path shows where the satellite is in the earth's shadow,  

DLR